Year,Month,Day,Hour,Minute,Value (Times are PST for barometer in hPa)
2022,12,27,00,00,979.24
2022,12,27,00,01,979.24
2022,12,27,00,02,979.24
2022,12,27,00,03,979.24
2022,12,27,00,04,979.24
2022,12,27,00,05,979.24
2022,12,27,00,06,979.24
2022,12,27,00,07,979.24
2022,12,27,00,08,979.24
2022,12,27,00,09,979.24
2022,12,27,00,10,979.24
2022,12,27,00,11,979.24
2022,12,27,00,12,979.24
2022,12,27,00,13,979.24
2022,12,27,00,14,979.24
2022,12,27,00,15,979.17
2022,12,27,00,16,979.17
2022,12,27,00,17,979.17
2022,12,27,00,18,979.17
2022,12,27,00,19,979.17
2022,12,27,00,20,979.17
2022,12,27,00,21,979.17
2022,12,27,00,22,979.17
2022,12,27,00,23,979.17
2022,12,27,00,24,979.17
2022,12,27,00,25,979.17
2022,12,27,00,26,979.17
2022,12,27,00,27,979.17
2022,12,27,00,28,979.17
2022,12,27,00,29,979.17
2022,12,27,00,30,978.94
2022,12,27,00,31,978.94
2022,12,27,00,32,978.94
2022,12,27,00,33,978.94
2022,12,27,00,34,978.94
2022,12,27,00,35,978.94
2022,12,27,00,36,978.94
2022,12,27,00,37,978.94
2022,12,27,00,38,978.94
2022,12,27,00,39,978.94
2022,12,27,00,40,978.94
2022,12,27,00,41,978.94
2022,12,27,00,42,978.94
2022,12,27,00,43,978.94
2022,12,27,00,44,978.94
2022,12,27,00,45,978.84
2022,12,27,00,46,978.84
2022,12,27,00,47,978.84
2022,12,27,00,48,978.84
2022,12,27,00,49,978.84
2022,12,27,00,50,978.84
2022,12,27,00,51,978.84
2022,12,27,00,52,978.84
2022,12,27,00,53,978.84
2022,12,27,00,54,978.84
2022,12,27,00,55,978.84
2022,12,27,00,56,978.84
2022,12,27,00,57,978.84
2022,12,27,00,58,978.84
2022,12,27,00,59,978.84
2022,12,27,01,00,978.29
2022,12,27,01,01,978.29
2022,12,27,01,02,978.29
2022,12,27,01,03,978.29
2022,12,27,01,04,978.29
2022,12,27,01,05,978.29
2022,12,27,01,06,978.29
2022,12,27,01,07,978.29
2022,12,27,01,08,978.29
2022,12,27,01,09,978.29
2022,12,27,01,10,978.29
2022,12,27,01,11,978.29
2022,12,27,01,12,978.29
2022,12,27,01,13,978.29
2022,12,27,01,14,978.29
2022,12,27,01,15,978.02
2022,12,27,01,16,978.02
2022,12,27,01,17,978.02
2022,12,27,01,18,978.02
2022,12,27,01,19,978.02
2022,12,27,01,20,978.02
2022,12,27,01,21,978.02
2022,12,27,01,22,978.02
2022,12,27,01,23,978.02
2022,12,27,01,24,978.02
2022,12,27,01,25,978.02
2022,12,27,01,26,978.02
2022,12,27,01,27,978.02
2022,12,27,01,28,978.02
2022,12,27,01,29,978.02
2022,12,27,01,30,977.86
2022,12,27,01,31,977.85
2022,12,27,01,32,977.85
2022,12,27,01,33,977.85
2022,12,27,01,34,977.85
2022,12,27,01,35,977.85
2022,12,27,01,36,977.85
2022,12,27,01,37,977.85
2022,12,27,01,38,977.85
2022,12,27,01,39,977.85
2022,12,27,01,40,977.85
2022,12,27,01,41,977.85
2022,12,27,01,42,977.85
2022,12,27,01,43,977.85
2022,12,27,01,44,977.85
2022,12,27,01,45,977.18
2022,12,27,01,46,977.18
2022,12,27,01,47,977.18
2022,12,27,01,48,977.18
2022,12,27,01,49,977.18
2022,12,27,01,50,977.18
2022,12,27,01,51,977.18
2022,12,27,01,52,977.18
2022,12,27,01,53,977.18
2022,12,27,01,54,977.18
2022,12,27,01,55,977.18
2022,12,27,01,56,977.18
2022,12,27,01,57,977.18
2022,12,27,01,58,977.18
2022,12,27,01,59,977.18
2022,12,27,02,00,976.84
2022,12,27,02,01,976.84
2022,12,27,02,02,976.84
2022,12,27,02,03,976.84
2022,12,27,02,04,976.84
2022,12,27,02,05,976.84
2022,12,27,02,06,976.84
2022,12,27,02,07,976.84
2022,12,27,02,08,976.84
2022,12,27,02,09,976.84
2022,12,27,02,10,976.84
2022,12,27,02,11,976.84
2022,12,27,02,12,976.84
2022,12,27,02,13,976.84
2022,12,27,02,14,976.84
2022,12,27,02,15,976.57
2022,12,27,02,16,976.57
2022,12,27,02,17,976.57
2022,12,27,02,18,976.57
2022,12,27,02,19,976.57
2022,12,27,02,20,976.57
2022,12,27,02,21,976.57
2022,12,27,02,22,976.57
2022,12,27,02,23,976.57
2022,12,27,02,24,976.57
2022,12,27,02,25,976.57
2022,12,27,02,26,976.57
2022,12,27,02,27,976.57
2022,12,27,02,28,976.57
2022,12,27,02,29,976.57
2022,12,27,02,30,976.67
2022,12,27,02,31,976.67
2022,12,27,02,32,976.67
2022,12,27,02,33,976.67
2022,12,27,02,34,976.67
2022,12,27,02,35,976.67
2022,12,27,02,36,976.67
2022,12,27,02,37,976.67
2022,12,27,02,38,976.67
2022,12,27,02,39,976.67
2022,12,27,02,40,976.67
2022,12,27,02,41,976.67
2022,12,27,02,42,976.67
2022,12,27,02,43,976.67
2022,12,27,02,44,976.67
2022,12,27,02,45,976.25
2022,12,27,02,46,976.23
2022,12,27,02,47,976.23
2022,12,27,02,48,976.23
2022,12,27,02,49,976.23
2022,12,27,02,50,976.23
2022,12,27,02,51,976.23
2022,12,27,02,52,976.23
2022,12,27,02,53,976.23
2022,12,27,02,54,976.23
2022,12,27,02,55,976.23
2022,12,27,02,56,976.23
2022,12,27,02,57,976.23
2022,12,27,02,58,976.23
2022,12,27,02,59,976.23
2022,12,27,03,00,975.59
2022,12,27,03,01,975.59
2022,12,27,03,02,975.59
2022,12,27,03,03,975.59
2022,12,27,03,04,975.59
2022,12,27,03,05,975.59
2022,12,27,03,06,975.59
2022,12,27,03,07,975.59
2022,12,27,03,08,975.59
2022,12,27,03,09,975.59
2022,12,27,03,10,975.59
2022,12,27,03,11,975.59
2022,12,27,03,12,975.59
2022,12,27,03,13,975.59
2022,12,27,03,14,975.59
2022,12,27,03,15,975.18
2022,12,27,03,16,975.18
2022,12,27,03,17,975.18
2022,12,27,03,18,975.18
2022,12,27,03,19,975.18
2022,12,27,03,20,975.18
2022,12,27,03,21,975.18
2022,12,27,03,22,975.18
2022,12,27,03,23,975.18
2022,12,27,03,24,975.18
2022,12,27,03,25,975.18
2022,12,27,03,26,975.18
2022,12,27,03,27,975.18
2022,12,27,03,28,975.18
2022,12,27,03,29,975.18
2022,12,27,03,30,974.98
2022,12,27,03,31,974.98
2022,12,27,03,32,974.98
2022,12,27,03,33,974.98
2022,12,27,03,34,974.98
2022,12,27,03,35,974.98
2022,12,27,03,36,974.98
2022,12,27,03,37,974.98
2022,12,27,03,38,974.98
2022,12,27,03,39,974.98
2022,12,27,03,40,974.98
2022,12,27,03,41,974.98
2022,12,27,03,42,974.98
2022,12,27,03,43,974.98
2022,12,27,03,44,974.98
2022,12,27,03,45,974.50
2022,12,27,03,46,974.50
2022,12,27,03,47,974.50
2022,12,27,03,48,974.50
2022,12,27,03,49,974.50
2022,12,27,03,50,974.50
2022,12,27,03,51,974.50
2022,12,27,03,52,974.50
2022,12,27,03,53,974.50
2022,12,27,03,54,974.50
2022,12,27,03,55,974.50
2022,12,27,03,56,974.50
2022,12,27,03,57,974.50
2022,12,27,03,58,974.50
2022,12,27,03,59,974.50
2022,12,27,04,00,974.57
2022,12,27,04,01,974.57
2022,12,27,04,02,974.57
2022,12,27,04,03,974.57
2022,12,27,04,04,974.57
2022,12,27,04,05,974.57
2022,12,27,04,06,974.57
2022,12,27,04,07,974.57
2022,12,27,04,08,974.57
2022,12,27,04,09,974.57
2022,12,27,04,10,974.57
2022,12,27,04,11,974.57
2022,12,27,04,12,974.57
2022,12,27,04,13,974.57
2022,12,27,04,14,974.57
2022,12,27,04,15,974.47
2022,12,27,04,16,974.47
2022,12,27,04,17,974.47
2022,12,27,04,18,974.47
2022,12,27,04,19,974.47
2022,12,27,04,20,974.47
2022,12,27,04,21,974.47
2022,12,27,04,22,974.47
2022,12,27,04,23,974.47
2022,12,27,04,24,974.47
2022,12,27,04,25,974.47
2022,12,27,04,26,974.47
2022,12,27,04,27,974.47
2022,12,27,04,28,974.47
2022,12,27,04,29,974.47
2022,12,27,04,30,974.02
2022,12,27,04,31,973.99
2022,12,27,04,32,973.99
2022,12,27,04,33,973.99
2022,12,27,04,34,973.99
2022,12,27,04,35,973.99
2022,12,27,04,36,973.99
2022,12,27,04,37,973.99
2022,12,27,04,38,973.99
2022,12,27,04,39,973.99
2022,12,27,04,40,973.99
2022,12,27,04,41,973.99
2022,12,27,04,42,973.99
2022,12,27,04,43,973.99
2022,12,27,04,44,973.99
2022,12,27,04,45,973.45
2022,12,27,04,46,973.45
2022,12,27,04,47,973.45
2022,12,27,04,48,973.45
2022,12,27,04,49,973.45
2022,12,27,04,50,973.45
2022,12,27,04,51,973.45
2022,12,27,04,52,973.45
2022,12,27,04,53,973.45
2022,12,27,04,54,973.45
2022,12,27,04,55,973.45
2022,12,27,04,56,973.45
2022,12,27,04,57,973.45
2022,12,27,04,58,973.45
2022,12,27,04,59,973.45
2022,12,27,05,00,973.38
2022,12,27,05,01,973.38
2022,12,27,05,02,973.38
2022,12,27,05,03,973.38
2022,12,27,05,04,973.38
2022,12,27,05,05,973.38
2022,12,27,05,06,973.38
2022,12,27,05,07,973.38
2022,12,27,05,08,973.38
2022,12,27,05,09,973.38
2022,12,27,05,10,973.38
2022,12,27,05,11,973.38
2022,12,27,05,12,973.38
2022,12,27,05,13,973.38
2022,12,27,05,14,973.38
2022,12,27,05,15,972.96
2022,12,27,05,16,972.94
2022,12,27,05,17,972.94
2022,12,27,05,18,972.94
2022,12,27,05,19,972.94
2022,12,27,05,20,972.94
2022,12,27,05,21,972.94
2022,12,27,05,22,972.94
2022,12,27,05,23,972.94
2022,12,27,05,24,972.94
2022,12,27,05,25,972.94
2022,12,27,05,26,972.94
2022,12,27,05,27,972.94
2022,12,27,05,28,972.94
2022,12,27,05,29,972.94
2022,12,27,05,30,972.88
2022,12,27,05,31,972.88
2022,12,27,05,32,972.88
2022,12,27,05,33,972.88
2022,12,27,05,34,972.88
2022,12,27,05,35,972.88
2022,12,27,05,36,972.88
2022,12,27,05,37,972.88
2022,12,27,05,38,972.88
2022,12,27,05,39,972.88
2022,12,27,05,40,972.88
2022,12,27,05,41,972.88
2022,12,27,05,42,972.88
2022,12,27,05,43,972.88
2022,12,27,05,44,972.88
2022,12,27,05,45,972.05
2022,12,27,05,46,972.00
2022,12,27,05,47,972.00
2022,12,27,05,48,972.00
2022,12,27,05,49,972.00
2022,12,27,05,50,972.00
2022,12,27,05,51,972.00
2022,12,27,05,52,972.00
2022,12,27,05,53,972.00
2022,12,27,05,54,972.00
2022,12,27,05,55,972.00
2022,12,27,05,56,972.00
2022,12,27,05,57,972.00
2022,12,27,05,58,972.00
2022,12,27,05,59,972.00
2022,12,27,06,00,972.37
2022,12,27,06,01,972.37
2022,12,27,06,02,972.37
2022,12,27,06,03,972.37
2022,12,27,06,04,972.37
2022,12,27,06,05,972.37
2022,12,27,06,06,972.37
2022,12,27,06,07,972.37
2022,12,27,06,08,972.37
2022,12,27,06,09,972.37
2022,12,27,06,10,972.37
2022,12,27,06,11,972.37
2022,12,27,06,12,972.37
2022,12,27,06,13,972.37
2022,12,27,06,14,972.37
2022,12,27,06,15,971.96
2022,12,27,06,16,971.96
2022,12,27,06,17,971.96
2022,12,27,06,18,971.96
2022,12,27,06,19,971.96
2022,12,27,06,20,971.96
2022,12,27,06,21,971.96
2022,12,27,06,22,971.96
2022,12,27,06,23,971.96
2022,12,27,06,24,971.96
2022,12,27,06,25,971.96
2022,12,27,06,26,971.96
2022,12,27,06,27,971.96
2022,12,27,06,28,971.96
2022,12,27,06,29,971.96
2022,12,27,06,30,972.33
2022,12,27,06,31,972.33
2022,12,27,06,32,972.33
2022,12,27,06,33,972.33
2022,12,27,06,34,972.33
2022,12,27,06,35,972.33
2022,12,27,06,36,972.33
2022,12,27,06,37,972.33
2022,12,27,06,38,972.33
2022,12,27,06,39,972.33
2022,12,27,06,40,972.33
2022,12,27,06,41,972.33
2022,12,27,06,42,972.33
2022,12,27,06,43,972.33
2022,12,27,06,44,972.33
2022,12,27,06,45,972.00
2022,12,27,06,46,972.00
2022,12,27,06,47,972.00
2022,12,27,06,48,972.00
2022,12,27,06,49,972.00
2022,12,27,06,50,972.00
2022,12,27,06,51,972.00
2022,12,27,06,52,972.00
2022,12,27,06,53,972.00
2022,12,27,06,54,972.00
2022,12,27,06,55,972.00
2022,12,27,06,56,972.00
2022,12,27,06,57,972.00
2022,12,27,06,58,972.00
2022,12,27,06,59,972.00
2022,12,27,07,00,972.31
2022,12,27,07,01,972.33
2022,12,27,07,02,972.33
2022,12,27,07,03,972.33
2022,12,27,07,04,972.33
2022,12,27,07,05,972.33
2022,12,27,07,06,972.33
2022,12,27,07,07,972.33
2022,12,27,07,08,972.33
2022,12,27,07,09,972.33
2022,12,27,07,10,972.33
2022,12,27,07,11,972.33
2022,12,27,07,12,972.33
2022,12,27,07,13,972.33
2022,12,27,07,14,972.33
2022,12,27,07,15,972.20
2022,12,27,07,16,972.20
2022,12,27,07,17,972.20
2022,12,27,07,18,972.20
2022,12,27,07,19,972.20
2022,12,27,07,20,972.20
2022,12,27,07,21,972.20
2022,12,27,07,22,972.20
2022,12,27,07,23,972.20
2022,12,27,07,24,972.20
2022,12,27,07,25,972.20
2022,12,27,07,26,972.20
2022,12,27,07,27,972.20
2022,12,27,07,28,972.20
2022,12,27,07,29,972.20
2022,12,27,07,30,971.96
2022,12,27,07,31,971.96
2022,12,27,07,32,971.96
2022,12,27,07,33,971.96
2022,12,27,07,34,971.96
2022,12,27,07,35,971.96
2022,12,27,07,36,971.96
2022,12,27,07,37,971.96
2022,12,27,07,38,971.96
2022,12,27,07,39,971.96
2022,12,27,07,40,971.96
2022,12,27,07,41,971.96
2022,12,27,07,42,971.96
2022,12,27,07,43,971.96
2022,12,27,07,44,971.96
2022,12,27,07,45,971.89
2022,12,27,07,46,971.89
2022,12,27,07,47,971.89
2022,12,27,07,48,971.89
2022,12,27,07,49,971.89
2022,12,27,07,50,971.89
2022,12,27,07,51,971.89
2022,12,27,07,52,971.89
2022,12,27,07,53,971.89
2022,12,27,07,54,971.89
2022,12,27,07,55,971.89
2022,12,27,07,56,971.89
2022,12,27,07,57,971.89
2022,12,27,07,58,971.89
2022,12,27,07,59,971.89
2022,12,27,08,00,971.79
2022,12,27,08,01,971.79
2022,12,27,08,02,971.79
2022,12,27,08,03,971.79
2022,12,27,08,04,971.79
2022,12,27,08,05,971.79
2022,12,27,08,06,971.79
2022,12,27,08,07,971.79
2022,12,27,08,08,971.79
2022,12,27,08,09,971.79
2022,12,27,08,10,971.79
2022,12,27,08,11,971.79
2022,12,27,08,12,971.79
2022,12,27,08,13,971.79
2022,12,27,08,14,971.79
2022,12,27,08,15,972.11
2022,12,27,08,16,972.13
2022,12,27,08,17,972.13
2022,12,27,08,18,972.13
2022,12,27,08,19,972.13
2022,12,27,08,20,972.13
2022,12,27,08,21,972.13
2022,12,27,08,22,972.13
2022,12,27,08,23,972.13
2022,12,27,08,24,972.13
2022,12,27,08,25,972.13
2022,12,27,08,26,972.13
2022,12,27,08,27,972.13
2022,12,27,08,28,972.13
2022,12,27,08,29,972.13
2022,12,27,08,30,972.44
2022,12,27,08,31,972.44
2022,12,27,08,32,972.44
2022,12,27,08,33,972.44
2022,12,27,08,34,972.44
2022,12,27,08,35,972.44
2022,12,27,08,36,972.44
2022,12,27,08,37,972.44
2022,12,27,08,38,972.44
2022,12,27,08,39,972.44
2022,12,27,08,40,972.44
2022,12,27,08,41,972.44
2022,12,27,08,42,972.44
2022,12,27,08,43,972.44
2022,12,27,08,44,972.44
2022,12,27,08,45,972.86
2022,12,27,08,46,972.88
2022,12,27,08,47,972.88
2022,12,27,08,48,972.88
2022,12,27,08,49,972.88
2022,12,27,08,50,972.88
2022,12,27,08,51,972.88
2022,12,27,08,52,972.88
2022,12,27,08,53,972.88
2022,12,27,08,54,972.88
2022,12,27,08,55,972.88
2022,12,27,08,56,972.88
2022,12,27,08,57,972.88
2022,12,27,08,58,972.88
2022,12,27,08,59,972.88
2022,12,27,09,00,972.98
2022,12,27,09,01,972.98
2022,12,27,09,02,972.98
2022,12,27,09,03,972.98
2022,12,27,09,04,972.98
2022,12,27,09,05,972.98
2022,12,27,09,06,972.98
2022,12,27,09,07,972.98
2022,12,27,09,08,972.98
2022,12,27,09,09,972.98
2022,12,27,09,10,972.98
2022,12,27,09,11,972.98
2022,12,27,09,12,972.98
2022,12,27,09,13,972.98
2022,12,27,09,14,972.98
2022,12,27,09,15,973.33
2022,12,27,09,16,973.35
2022,12,27,09,17,973.35
2022,12,27,09,18,973.35
2022,12,27,09,19,973.35
2022,12,27,09,20,973.35
2022,12,27,09,21,973.35
2022,12,27,09,22,973.35
2022,12,27,09,23,973.35
2022,12,27,09,24,973.35
2022,12,27,09,25,973.35
2022,12,27,09,26,973.35
2022,12,27,09,27,973.35
2022,12,27,09,28,973.35
2022,12,27,09,29,973.35
2022,12,27,09,30,973.45
2022,12,27,09,31,973.45
2022,12,27,09,32,973.45
2022,12,27,09,33,973.45
2022,12,27,09,34,973.45
2022,12,27,09,35,973.45
2022,12,27,09,36,973.45
2022,12,27,09,37,973.45
2022,12,27,09,38,973.45
2022,12,27,09,39,973.45
2022,12,27,09,40,973.45
2022,12,27,09,41,973.45
2022,12,27,09,42,973.45
2022,12,27,09,43,973.45
2022,12,27,09,44,973.45
2022,12,27,09,45,973.55
2022,12,27,09,46,973.55
2022,12,27,09,47,973.55
2022,12,27,09,48,973.55
2022,12,27,09,49,973.55
2022,12,27,09,50,973.55
2022,12,27,09,51,973.55
2022,12,27,09,52,973.55
2022,12,27,09,53,973.55
2022,12,27,09,54,973.55
2022,12,27,09,55,973.55
2022,12,27,09,56,973.55
2022,12,27,09,57,973.55
2022,12,27,09,58,973.55
2022,12,27,09,59,973.55
2022,12,27,10,00,973.82
2022,12,27,10,01,973.82
2022,12,27,10,02,973.82
2022,12,27,10,03,973.82
2022,12,27,10,04,973.82
2022,12,27,10,05,973.82
2022,12,27,10,06,973.82
2022,12,27,10,07,973.82
2022,12,27,10,08,973.82
2022,12,27,10,09,973.82
2022,12,27,10,10,973.82
2022,12,27,10,11,973.82
2022,12,27,10,12,973.82
2022,12,27,10,13,973.82
2022,12,27,10,14,973.82
2022,12,27,10,15,973.99
2022,12,27,10,16,973.99
2022,12,27,10,17,973.99
2022,12,27,10,18,973.99
2022,12,27,10,19,973.99
2022,12,27,10,20,973.99
2022,12,27,10,21,973.99
2022,12,27,10,22,973.99
2022,12,27,10,23,973.99
2022,12,27,10,24,973.99
2022,12,27,10,25,973.99
2022,12,27,10,26,973.99
2022,12,27,10,27,973.99
2022,12,27,10,28,973.99
2022,12,27,10,29,973.99
2022,12,27,10,30,974.19
2022,12,27,10,31,974.20
2022,12,27,10,32,974.20
2022,12,27,10,33,974.20
2022,12,27,10,34,974.20
2022,12,27,10,35,974.20
2022,12,27,10,36,974.20
2022,12,27,10,37,974.20
2022,12,27,10,38,974.20
2022,12,27,10,39,974.20
2022,12,27,10,40,974.20
2022,12,27,10,41,974.20
2022,12,27,10,42,974.20
2022,12,27,10,43,974.20
2022,12,27,10,44,974.20
2022,12,27,10,45,974.43
2022,12,27,10,46,974.43
2022,12,27,10,47,974.43
2022,12,27,10,48,974.43
2022,12,27,10,49,974.43
2022,12,27,10,50,974.43
2022,12,27,10,51,974.43
2022,12,27,10,52,974.43
2022,12,27,10,53,974.43
2022,12,27,10,54,974.43
2022,12,27,10,55,974.43
2022,12,27,10,56,974.43
2022,12,27,10,57,974.43
2022,12,27,10,58,974.43
2022,12,27,10,59,974.43
2022,12,27,11,00,974.50
2022,12,27,11,01,974.50
2022,12,27,11,02,974.50
2022,12,27,11,03,974.50
2022,12,27,11,04,974.50
2022,12,27,11,05,974.50
2022,12,27,11,06,974.50
2022,12,27,11,07,974.50
2022,12,27,11,08,974.50
2022,12,27,11,09,974.50
2022,12,27,11,10,974.50
2022,12,27,11,11,974.50
2022,12,27,11,12,974.50
2022,12,27,11,13,974.50
2022,12,27,11,14,974.50
2022,12,27,11,15,974.85
2022,12,27,11,16,974.87
2022,12,27,11,17,974.87
2022,12,27,11,18,974.87
2022,12,27,11,19,974.87
2022,12,27,11,20,974.87
2022,12,27,11,21,974.87
2022,12,27,11,22,974.87
2022,12,27,11,23,974.87
2022,12,27,11,24,974.87
2022,12,27,11,25,974.87
2022,12,27,11,26,974.87
2022,12,27,11,27,974.87
2022,12,27,11,28,974.87
2022,12,27,11,29,974.87
2022,12,27,11,30,974.97
2022,12,27,11,31,974.98
2022,12,27,11,32,974.98
2022,12,27,11,33,974.98
2022,12,27,11,34,974.98
2022,12,27,11,35,974.98
2022,12,27,11,36,974.98
2022,12,27,11,37,974.98
2022,12,27,11,38,974.98
2022,12,27,11,39,974.98
2022,12,27,11,40,974.98
2022,12,27,11,41,974.98
2022,12,27,11,42,974.98
2022,12,27,11,43,974.98
2022,12,27,11,44,974.98
2022,12,27,11,45,975.04
2022,12,27,11,46,975.04
2022,12,27,11,47,975.04
2022,12,27,11,48,975.04
2022,12,27,11,49,975.04
2022,12,27,11,50,975.04
2022,12,27,11,51,975.04
2022,12,27,11,52,975.04
2022,12,27,11,53,975.04
2022,12,27,11,54,975.04
2022,12,27,11,55,975.04
2022,12,27,11,56,975.04
2022,12,27,11,57,975.04
2022,12,27,11,58,975.04
2022,12,27,11,59,975.04
2022,12,27,12,00,975.20
2022,12,27,12,01,975.21
2022,12,27,12,02,975.21
2022,12,27,12,03,975.21
2022,12,27,12,04,975.21
2022,12,27,12,05,975.21
2022,12,27,12,06,975.21
2022,12,27,12,07,975.21
2022,12,27,12,08,975.21
2022,12,27,12,09,975.21
2022,12,27,12,10,975.21
2022,12,27,12,11,975.21
2022,12,27,12,12,975.21
2022,12,27,12,13,975.21
2022,12,27,12,14,975.21
2022,12,27,12,15,975.47
2022,12,27,12,16,975.48
2022,12,27,12,17,975.48
2022,12,27,12,18,975.48
2022,12,27,12,19,975.48
2022,12,27,12,20,975.48
2022,12,27,12,21,975.48
2022,12,27,12,22,975.48
2022,12,27,12,23,975.48
2022,12,27,12,24,975.48
2022,12,27,12,25,975.48
2022,12,27,12,26,975.48
2022,12,27,12,27,975.48
2022,12,27,12,28,975.48
2022,12,27,12,29,975.48
2022,12,27,12,30,975.72
2022,12,27,12,31,975.72
2022,12,27,12,32,975.72
2022,12,27,12,33,975.72
2022,12,27,12,34,975.72
2022,12,27,12,35,975.72
2022,12,27,12,36,975.72
2022,12,27,12,37,975.72
2022,12,27,12,38,975.72
2022,12,27,12,39,975.72
2022,12,27,12,40,975.72
2022,12,27,12,41,975.72
2022,12,27,12,42,975.72
2022,12,27,12,43,975.72
2022,12,27,12,44,975.72
2022,12,27,12,45,976.04
2022,12,27,12,46,976.06
2022,12,27,12,47,976.06
2022,12,27,12,48,976.06
2022,12,27,12,49,976.06
2022,12,27,12,50,976.06
2022,12,27,12,51,976.06
2022,12,27,12,52,976.06
2022,12,27,12,53,976.06
2022,12,27,12,54,976.06
2022,12,27,12,55,976.06
2022,12,27,12,56,976.06
2022,12,27,12,57,976.06
2022,12,27,12,58,976.06
2022,12,27,12,59,976.06
2022,12,27,13,00,976.29
2022,12,27,13,01,976.30
2022,12,27,13,02,976.30
2022,12,27,13,03,976.30
2022,12,27,13,04,976.30
2022,12,27,13,05,976.30
2022,12,27,13,06,976.30
2022,12,27,13,07,976.30
2022,12,27,13,08,976.30
2022,12,27,13,09,976.30
2022,12,27,13,10,976.30
2022,12,27,13,11,976.30
2022,12,27,13,12,976.30
2022,12,27,13,13,976.30
2022,12,27,13,14,976.30
2022,12,27,13,15,976.58
2022,12,27,13,16,976.60
2022,12,27,13,17,976.60
2022,12,27,13,18,976.60
2022,12,27,13,19,976.60
2022,12,27,13,20,976.60
2022,12,27,13,21,976.60
2022,12,27,13,22,976.60
2022,12,27,13,23,976.60
2022,12,27,13,24,976.60
2022,12,27,13,25,976.60
2022,12,27,13,26,976.60
2022,12,27,13,27,976.60
2022,12,27,13,28,976.60
2022,12,27,13,29,976.60
2022,12,27,13,30,976.67
2022,12,27,13,31,976.67
2022,12,27,13,32,976.67
2022,12,27,13,33,976.67
2022,12,27,13,34,976.67
2022,12,27,13,35,976.67
2022,12,27,13,36,976.67
2022,12,27,13,37,976.67
2022,12,27,13,38,976.67
2022,12,27,13,39,976.67
2022,12,27,13,40,976.67
2022,12,27,13,41,976.67
2022,12,27,13,42,976.67
2022,12,27,13,43,976.67
2022,12,27,13,44,976.67
2022,12,27,13,45,977.14
2022,12,27,13,46,977.14
2022,12,27,13,47,977.14
2022,12,27,13,48,977.14
2022,12,27,13,49,977.14
2022,12,27,13,50,977.14
2022,12,27,13,51,977.14
2022,12,27,13,52,977.14
2022,12,27,13,53,977.14
2022,12,27,13,54,977.14
2022,12,27,13,55,977.14
2022,12,27,13,56,977.14
2022,12,27,13,57,977.14
2022,12,27,13,58,977.14
2022,12,27,13,59,977.14
2022,12,27,14,00,977.56
2022,12,27,14,01,977.58
2022,12,27,14,02,977.58
2022,12,27,14,03,977.58
2022,12,27,14,04,977.58
2022,12,27,14,05,977.58
2022,12,27,14,06,977.58
2022,12,27,14,07,977.58
2022,12,27,14,08,977.58
2022,12,27,14,09,977.58
2022,12,27,14,10,977.58
2022,12,27,14,11,977.58
2022,12,27,14,12,977.58
2022,12,27,14,13,977.58
2022,12,27,14,14,977.58
2022,12,27,14,15,977.90
2022,12,27,14,16,977.92
2022,12,27,14,17,977.92
2022,12,27,14,18,977.92
2022,12,27,14,19,977.92
2022,12,27,14,20,977.92
2022,12,27,14,21,977.92
2022,12,27,14,22,977.92
2022,12,27,14,23,977.92
2022,12,27,14,24,977.92
2022,12,27,14,25,977.92
2022,12,27,14,26,977.92
2022,12,27,14,27,977.92
2022,12,27,14,28,977.92
2022,12,27,14,29,977.92
2022,12,27,14,30,978.43
2022,12,27,14,31,978.43
2022,12,27,14,32,978.43
2022,12,27,14,33,978.43
2022,12,27,14,34,978.43
2022,12,27,14,35,978.43
2022,12,27,14,36,978.43
2022,12,27,14,37,978.43
2022,12,27,14,38,978.43
2022,12,27,14,39,978.43
2022,12,27,14,40,978.43
2022,12,27,14,41,978.43
2022,12,27,14,42,978.43
2022,12,27,14,43,978.43
2022,12,27,14,44,978.43
2022,12,27,14,45,978.85
2022,12,27,14,46,978.87
2022,12,27,14,47,978.87
2022,12,27,14,48,978.87
2022,12,27,14,49,978.87
2022,12,27,14,50,978.87
2022,12,27,14,51,978.87
2022,12,27,14,52,978.87
2022,12,27,14,53,978.87
2022,12,27,14,54,978.87
2022,12,27,14,55,978.87
2022,12,27,14,56,978.87
2022,12,27,14,57,978.87
2022,12,27,14,58,978.87
2022,12,27,14,59,978.87
2022,12,27,15,00,979.32
2022,12,27,15,01,979.34
2022,12,27,15,02,979.34
2022,12,27,15,03,979.34
2022,12,27,15,04,979.34
2022,12,27,15,05,979.34
2022,12,27,15,06,979.34
2022,12,27,15,07,979.34
2022,12,27,15,08,979.34
2022,12,27,15,09,979.34
2022,12,27,15,10,979.34
2022,12,27,15,11,979.34
2022,12,27,15,12,979.34
2022,12,27,15,13,979.34
2022,12,27,15,14,979.34
2022,12,27,15,15,979.76
2022,12,27,15,16,979.78
2022,12,27,15,17,979.78
2022,12,27,15,18,979.78
2022,12,27,15,19,979.78
2022,12,27,15,20,979.78
2022,12,27,15,21,979.78
2022,12,27,15,22,979.78
2022,12,27,15,23,979.78
2022,12,27,15,24,979.78
2022,12,27,15,25,979.78
2022,12,27,15,26,979.78
2022,12,27,15,27,979.78
2022,12,27,15,28,979.78
2022,12,27,15,29,979.78
2022,12,27,15,30,980.29
2022,12,27,15,31,980.29
2022,12,27,15,32,980.29
2022,12,27,15,33,980.29
2022,12,27,15,34,980.29
2022,12,27,15,35,980.29
2022,12,27,15,36,980.29
2022,12,27,15,37,980.29
2022,12,27,15,38,980.29
2022,12,27,15,39,980.29
2022,12,27,15,40,980.29
2022,12,27,15,41,980.29
2022,12,27,15,42,980.29
2022,12,27,15,43,980.29
2022,12,27,15,44,980.29
2022,12,27,15,45,980.83
2022,12,27,15,46,980.83
2022,12,27,15,47,980.83
2022,12,27,15,48,980.83
2022,12,27,15,49,980.83
2022,12,27,15,50,980.83
2022,12,27,15,51,980.83
2022,12,27,15,52,980.83
2022,12,27,15,53,980.83
2022,12,27,15,54,980.83
2022,12,27,15,55,980.83
2022,12,27,15,56,980.83
2022,12,27,15,57,980.83
2022,12,27,15,58,980.83
2022,12,27,15,59,980.83
2022,12,27,16,00,981.35
2022,12,27,16,01,981.38
2022,12,27,16,02,981.38
2022,12,27,16,03,981.38
2022,12,27,16,04,981.38
2022,12,27,16,05,981.38
2022,12,27,16,06,981.38
2022,12,27,16,07,981.38
2022,12,27,16,08,981.38
2022,12,27,16,09,981.38
2022,12,27,16,10,981.38
2022,12,27,16,11,981.38
2022,12,27,16,12,981.38
2022,12,27,16,13,981.38
2022,12,27,16,14,981.38
2022,12,27,16,15,981.88
2022,12,27,16,16,981.88
2022,12,27,16,17,981.88
2022,12,27,16,18,981.88
2022,12,27,16,19,981.88
2022,12,27,16,20,981.88
2022,12,27,16,21,981.88
2022,12,27,16,22,981.88
2022,12,27,16,23,981.88
2022,12,27,16,24,981.88
2022,12,27,16,25,981.88
2022,12,27,16,26,981.88
2022,12,27,16,27,981.88
2022,12,27,16,28,981.88
2022,12,27,16,29,981.88
2022,12,27,16,30,982.19
2022,12,27,16,31,982.19
2022,12,27,16,32,982.19
2022,12,27,16,33,982.19
2022,12,27,16,34,982.19
2022,12,27,16,35,982.19
2022,12,27,16,36,982.19